Time,TemperatureF,DewpointF,PressureIn,WindDirection,WindDirectionDegrees,WindSpeedMPH,WindSpeedGustMPH,Humidity,HourlyPrecipIn,Conditions,Clouds,dailyrainin,SoftwareType,DateUTC
2013-07-02 22:10:00,70.9,69.7,30.23,WSW,238,2.0,5.0,96,0.00,,,0.00,Wunderground v.1.15,2013-07-03 02:10:00,
2013-07-02 22:20:00,71.0,69.8,30.23,WSW,253,2.0,5.0,96,0.00,,,0.00,Wunderground v.1.15,2013-07-03 02:20:00,
2013-07-02 22:22:00,71.0,69.8,30.23,WSW,246,2.0,5.0,96,0.00,,,0.00,Wunderground v.1.15,2013-07-03 02:22:00,
2013-07-02 22:25:00,71.0,70.1,30.23,WSW,239,2.0,5.0,97,0.00,,,0.00,Wunderground v.1.15,2013-07-03 02:25:00,
2013-07-02 22:27:00,71.0,70.1,30.23,WSW,248,3.0,5.0,97,0.00,,,0.00,Wunderground v.1.15,2013-07-03 02:27:00,
2013-07-02 22:28:00,71.0,70.1,30.23,WSW,238,3.0,5.0,97,0.00,,,0.00,Wunderground v.1.15,2013-07-03 02:28:00,
2013-07-02 22:31:00,71.0,70.1,30.22,WSW,245,3.0,3.0,97,0.00,,,0.00,Wunderground v.1.15,2013-07-03 02:31:00,
2013-07-02 22:32:00,71.0,70.1,30.22,WSW,239,2.0,3.0,97,0.00,,,0.00,Wunderground v.1.15,2013-07-03 02:32:00,
2013-07-02 22:33:00,71.1,70.2,30.23,SW,236,3.0,3.0,97,0.00,,,0.00,Wunderground v.1.15,2013-07-03 02:33:00,
2013-07-02 22:36:00,71.2,70.3,30.23,SW,224,3.0,5.0,97,0.00,,,0.00,Wunderground v.1.15,2013-07-03 02:36:00,
2013-07-02 22:37:00,71.1,70.2,30.23,WSW,238,2.0,5.0,97,0.00,,,0.00,Wunderground v.1.15,2013-07-03 02:37:00,
2013-07-02 22:38:00,71.2,70.3,30.23,SW,217,2.0,5.0,97,0.00,,,0.00,Wunderground v.1.15,2013-07-03 02:38:00,
2013-07-02 22:39:00,71.1,70.2,30.23,SW,235,4.0,5.0,97,0.00,,,0.00,Wunderground v.1.15,2013-07-03 02:39:00,
2013-07-02 22:42:00,71.1,69.9,30.23,WSW,249,4.0,4.0,96,0.00,,,0.00,Wunderground v.1.15,2013-07-03 02:42:00,
2013-07-02 22:43:00,71.1,69.9,30.22,SW,236,4.0,4.0,96,0.00,,,0.00,Wunderground v.1.15,2013-07-03 02:43:00,
2013-07-02 22:44:00,71.1,69.9,30.22,WSW,242,2.0,4.0,96,0.00,,,0.00,Wunderground v.1.15,2013-07-03 02:44:00,
2013-07-02 22:46:00,71.1,69.9,30.22,WSW,239,2.0,4.0,96,0.00,,,0.00,Wunderground v.1.15,2013-07-03 02:46:00,
2013-07-02 22:47:00,71.1,69.9,30.22,SW,233,2.0,4.0,96,0.00,,,0.00,Wunderground v.1.15,2013-07-03 02:47:00,
2013-07-02 22:48:00,71.1,69.9,30.22,WSW,255,1.0,4.0,96,0.00,,,0.00,Wunderground v.1.15,2013-07-03 02:48:00,
2013-07-02 22:49:00,71.0,69.8,30.22,WSW,255,2.0,4.0,96,0.00,,,0.00,Wunderground v.1.15,2013-07-03 02:49:00,
2013-07-02 22:51:00,71.0,69.8,30.22,SW,226,1.0,4.0,96,0.00,,,0.00,Wunderground v.1.15,2013-07-03 02:51:00,
2013-07-02 22:53:00,71.0,69.8,30.22,SW,232,2.0,4.0,96,0.00,,,0.00,Wunderground v.1.15,2013-07-03 02:53:00,
2013-07-02 22:55:00,71.1,70.2,30.22,WSW,245,2.0,4.0,97,0.00,,,0.00,Wunderground v.1.15,2013-07-03 02:55:00,
2013-07-02 22:56:00,71.1,70.2,30.22,SW,235,1.0,4.0,97,0.00,,,0.00,Wunderground v.1.15,2013-07-03 02:56:00,
2013-07-02 22:58:00,71.1,70.2,30.22,WSW,245,2.0,4.0,97,0.00,,,0.00,Wunderground v.1.15,2013-07-03 02:58:00,
2013-07-02 23:00:00,71.1,69.9,30.22,SW,236,2.0,2.0,96,0.00,,,0.00,Wunderground v.1.15,2013-07-03 03:00:00,
2013-07-02 23:02:00,71.1,69.9,30.22,WSW,255,3.0,4.0,96,0.00,,,0.00,Wunderground v.1.15,2013-07-03 03:02:00,
2013-07-02 23:05:00,71.1,69.9,30.22,WSW,256,0.0,4.0,96,0.00,,,0.00,Wunderground v.1.15,2013-07-03 03:05:00,
2013-07-02 23:08:00,71.0,69.8,30.22,SW,222,2.0,4.0,96,0.00,,,0.00,Wunderground v.1.15,2013-07-03 03:08:00,
2013-07-02 23:11:00,71.0,69.8,30.22,SW,232,3.0,3.0,96,0.00,,,0.00,Wunderground v.1.15,2013-07-03 03:11:00,
2013-07-02 23:13:00,71.0,69.8,30.22,WSW,239,2.0,4.0,96,0.00,,,0.00,Wunderground v.1.15,2013-07-03 03:13:00,
2013-07-02 23:14:00,70.9,69.7,30.22,WSW,238,2.0,4.0,96,0.00,,,0.00,Wunderground v.1.15,2013-07-03 03:14:00,
2013-07-02 23:16:00,70.9,69.7,30.22,WSW,257,2.0,4.0,96,0.00,,,0.00,Wunderground v.1.15,2013-07-03 03:16:00,
2013-07-02 23:17:00,70.9,69.7,30.22,SW,236,1.0,4.0,96,0.00,,,0.00,Wunderground v.1.15,2013-07-03 03:17:00,
2013-07-02 23:18:00,70.9,69.7,30.22,SW,232,3.0,4.0,96,0.00,,,0.00,Wunderground v.1.15,2013-07-03 03:18:00,
2013-07-02 23:19:00,70.8,69.6,30.22,WSW,248,0.0,4.0,96,0.00,,,0.00,Wunderground v.1.15,2013-07-03 03:19:00,
2013-07-02 23:20:00,70.9,69.7,30.22,SW,236,2.0,3.0,96,0.00,,,0.00,Wunderground v.1.15,2013-07-03 03:20:00,
2013-07-02 23:21:00,70.8,69.6,30.22,WSW,253,1.0,3.0,96,0.00,,,0.00,Wunderground v.1.15,2013-07-03 03:21:00,
2013-07-02 23:23:00,70.8,69.6,30.22,SSE,153,3.0,4.0,96,0.00,,,0.00,Wunderground v.1.15,2013-07-03 03:23:00,
2013-07-02 23:25:00,70.7,69.5,30.22,SW,224,2.0,6.0,96,0.00,,,0.00,Wunderground v.1.15,2013-07-03 03:25:00,
2013-07-02 23:27:00,70.7,69.5,30.22,WSW,245,3.0,6.0,96,0.00,,,0.00,Wunderground v.1.15,2013-07-03 03:27:00,
2013-07-02 23:29:00,70.7,69.5,30.21,West,260,3.0,6.0,96,0.00,,,0.00,Wunderground v.1.15,2013-07-03 03:29:00,
2013-07-02 23:30:00,70.7,69.5,30.22,West,266,1.0,3.0,96,0.00,,,0.00,Wunderground v.1.15,2013-07-03 03:30:00,
2013-07-02 23:32:00,70.6,69.7,30.22,SW,221,3.0,3.0,97,0.00,,,0.00,Wunderground v.1.15,2013-07-03 03:32:00,
2013-07-02 23:35:00,70.6,69.7,30.22,WSW,249,1.0,4.0,97,0.00,,,0.00,Wunderground v.1.15,2013-07-03 03:35:00,
2013-07-02 23:36:00,70.6,69.7,30.22,WSW,240,2.0,4.0,97,0.00,,,0.00,Wunderground v.1.15,2013-07-03 03:36:00,
2013-07-02 23:37:00,70.6,69.7,30.22,WSW,248,2.0,4.0,97,0.00,,,0.00,Wunderground v.1.15,2013-07-03 03:37:00,
2013-07-02 23:39:00,70.6,69.7,30.22,WSW,245,2.0,4.0,97,0.00,,,0.00,Wunderground v.1.15,2013-07-03 03:39:00,
2013-07-02 23:40:00,70.6,69.7,30.22,West,266,1.0,2.0,97,0.00,,,0.00,Wunderground v.1.15,2013-07-03 03:40:00,
2013-07-02 23:43:00,70.6,69.7,30.22,SW,235,2.0,3.0,97,0.00,,,0.00,Wunderground v.1.15,2013-07-03 03:43:00,
2013-07-02 23:45:00,70.6,69.7,30.22,WSW,249,1.0,3.0,97,0.00,,,0.00,Wunderground v.1.15,2013-07-03 03:45:00,
2013-07-02 23:46:00,70.6,69.7,30.21,WSW,253,0.0,3.0,97,0.00,,,0.00,Wunderground v.1.15,2013-07-03 03:46:00,
2013-07-02 23:48:00,70.6,69.7,30.21,WSW,250,0.0,3.0,97,0.00,,,0.00,Wunderground v.1.15,2013-07-03 03:48:00,
2013-07-02 23:50:00,70.5,69.6,30.21,WSW,247,1.0,1.0,97,0.00,,,0.00,Wunderground v.1.15,2013-07-03 03:50:00,
2013-07-02 23:53:00,70.5,69.6,30.21,SSW,208,1.0,3.0,97,0.00,,,0.00,Wunderground v.1.15,2013-07-03 03:53:00,
2013-07-02 23:56:00,70.5,69.6,30.21,SW,236,1.0,3.0,97,0.00,,,0.00,Wunderground v.1.15,2013-07-03 03:56:00,
2013-07-02 23:58:00,70.5,69.6,30.21,WSW,245,1.0,3.0,97,0.00,,,0.00,Wunderground v.1.15,2013-07-03 03:58:00,